Regional Weather Roundup
Issued by NWS Green Bay, WI

Home | Current Version | Previous Version | Text Only | Print | Product List | Glossary On
Versions: 1 2 3 4 5 6 7 8 9 10 11 12 13 14 15 16 17 18 19 20 21 22 23 24 25 26 27 28 29 30 31 32 33 34 35 36 37 38 39 40 41 42 43 44 45 46 47 48 49 50
000
ASUS43 KGRB 171011
RWRGRB

NORTH-CENTRAL AND NORTHEAST WISCONSIN REGIONAL WEATHER ROUNDUP
NATIONAL WEATHER SERVICE GREEN BAY WI
500 AM CDT TUE OCT 17 2017

WIZ005-009-010>012-018-019-171100-
NORTH CENTRAL WISCONSIN

CITY           SKY/WX    TMP DP  RH WIND       PRES   REMARKS
IRONWOOD       CLEAR     47  37  68 SW6       29.93S
MANITOWISH WTR CLEAR     42  37  80 SW3       29.95R
ARBOR VITAE    CLOUDY    39  37  91 CALM      29.95S
EAGLE RIVER    CLOUDY    41  34  76 CALM      29.95R
LAND O LAKES   CLOUDY    35  34  96 CALM      29.96R
RHINELANDER    CLOUDY    43  37  79 W6        29.97R
PHILLIPS       CLEAR     40  36  85 CALM      29.97R
ANTIGO         CLOUDY    42  36  81 SW6       29.98S
TOMAHAWK       CLOUDY    36  34  91 CALM      29.98R
MERRILL        CLOUDY    38  36  91 CALM      29.99R
$$

WIZ013-073-171100-
NORTHEAST WISCONSIN

CITY           SKY/WX    TMP DP  RH WIND       PRES   REMARKS
IRON MOUNTAIN  CLEAR     50  35  56 W7        29.93R
MARINETTE      CLEAR     48  38  68 W8        29.97S
OCONTO         CLEAR     49  37  63 W9        29.98S
$$

WIZ017-030-035>037-045-171100-
CENTRAL WISCONSIN

CITY           SKY/WX    TMP DP  RH WIND       PRES   REMARKS
MEDFORD        CLOUDY    43  36  77 SW6       29.98S
WAUSAU         CLOUDY    46  37  71 SW5       29.99R
MOSINEE        CLOUDY    41  36  81 S6        30.01R
MARSHFIELD     CLEAR     45  36  70 SW6       30.00R
WISC RAPIDS    CLEAR     47  39  74 SW6       30.02R
STEVENS POINT  CLEAR     40  36  83 CALM      30.02R
WAUPACA        CLEAR     46  38  73 S3        30.02S
SHAWANO        CLOUDY    48  38  67 CALM      29.99S
CLINTONVILLE   CLOUDY    45  37  76 SW7       30.00S
WAUTOMA        CLEAR     36  35  96 CALM      30.04S
$$

WIZ038-039-048-051-171100-
FOX VALLEY

CITY           SKY/WX    TMP DP  RH WIND       PRES   REMARKS
NWS GREEN BAY  CLEAR     51  40  65 SW8       30.01S
APPLETON       CLEAR     46  36  66 SW12      30.01R
OSHKOSH        CLEAR     49  39  68 SW14G22   30.02S
FOND DU LAC    CLEAR     50  37  61 SW13G22   30.04S
$$

WIZ022-050-052-171100-
EAST CENTRAL WISCONSIN

CITY           SKY/WX    TMP DP  RH WIND       PRES   REMARKS
EPHRAIM        FAIR      53  41  63 SW12G18   29.96S
WASHINGTON ISL FAIR      54  42  64 SW14G20   29.95S
STURGEON BAY   CLEAR     55  39  54 SW15G24   29.98R
MANITOWOC      CLEAR     54  38  54 SW14G20   30.02S
SHEBOYGAN      CLEAR     53  39  59 SW12G21   30.04F
$$

LMZ563-521-522-541>543-171100-
LAKESHORE

STATION/POSITION TIME  TEMP    WIND        PRES    VSBY  WAVE
                       AIR SEA DIR/SP/G                  HT/PER
                 (UTC) (F)     (DEG/KT/KT) (MB)    (MI)  (FT/S)
SHEBOYGAN LKSHOR 1000   56     230/ 15/ 19 1017.0F
KEWAUNEE LKSHORE 0942   54     250/  8/ 14 1014.7F
NORTHPORT PIER   0940   56     240/  8/ 23 1014.2R
N MID LAKE BUOY  0950   58 60  220/ 23/ 27 1014.3S         7/ 7
S GREEN BAY BUOY 1000   55 58  220/ 19/ 23 1014.8
SISTER BAY LKSHO 1004                        N/A
MENOMINEE LKSHOR 0936   51     230/  9/ 13 1014.5R
$$




USA.gov is the U.S. government's official web portal to all federal, state and local government web resources and services.